| time (UTC) | temp F | wind direction | speed MPH | gust MPH | rain 1hr in | rain 24hr in | rain mn in | humidity % | barometer mb |
| 20260510193038 | 68 | 257 | 2.0 | 3.0 | 0.00 | 0.00 | 0.00 | 75 | 1014.7 |
| 20260510192537 | 68 | 239 | 3.0 | 7.0 | 0.00 | 0.00 | 0.00 | 76 | 1014.6 |
| 20260510192034 | 66 | 240 | 4.0 | 5.0 | 0.00 | 0.00 | 0.00 | 78 | 1014.8 |
| 20260510191531 | 67 | 254 | 4.0 | 5.0 | 0.00 | 0.00 | 0.00 | 75 | 1014.9 |
| 20260510191027 | 66 | 222 | 1.0 | 1.0 | 0.00 | 0.00 | 0.00 | 75 | 1015.0 |
| 20260510190525 | 66 | 258 | 3.0 | 4.0 | 0.00 | 0.00 | 0.00 | 77 | 1014.9 |
| 20260510190022 | 64 | 298 | 0.0 | 4.0 | 0.00 | 0.00 | 0.00 | 80 | 1014.9 |
| 20260510185519 | 65 | 250 | 3.0 | 3.0 | 0.00 | 0.00 | 0.00 | 77 | 1015.1 |
| 20260510185016 | 64 | 42 | 0.0 | 4.0 | 0.00 | 0.00 | 0.00 | 80 | 1015.1 |
| 20260510184513 | 64 | 259 | 4.0 | 4.0 | 0.00 | 0.00 | 0.00 | 79 | 1015.1 |
| 20260510184008 | 62 | 247 | 1.0 | 5.0 | 0.00 | 0.00 | 0.00 | 84 | 1015.3 |
| 20260510183504 | 62 | 261 | 0.0 | 3.0 | 0.00 | 0.00 | 0.00 | 83 | 1015.3 |
| 20260510182959 | 62 | 217 | 1.0 | 3.0 | 0.00 | 0.00 | 0.00 | 84 | 1015.2 |
| 20260510182455 | 62 | 240 | 0.0 | 4.0 | 0.00 | 0.00 | 0.00 | 84 | 1015.2 |
| 20260510181950 | 61 | 253 | 1.0 | 3.0 | 0.00 | 0.00 | 0.00 | 85 | 1015.3 |
| 20260510181449 | 60 | 245 | 1.0 | 3.0 | 0.00 | 0.00 | 0.00 | 86 | 1015.2 |
| 20260510180945 | 59 | 244 | 2.0 | 4.0 | 0.00 | 0.00 | 0.00 | 86 | 1015.3 |
| 20260510180442 | 59 | 257 | 2.0 | 4.0 | 0.00 | 0.00 | 0.00 | 87 | 1015.2 |
| 20260510175939 | 59 | 252 | 1.0 | 4.0 | 0.00 | 0.00 | 0.00 | 87 | 1015.4 |
| 20260510175435 | 59 | 243 | 0.0 | 3.0 | 0.00 | 0.00 | 0.00 | 88 | 1015.6 |
| 20260510174930 | 59 | 20 | 0.0 | 1.0 | 0.00 | 0.00 | 0.00 | 87 | 1015.6 |
| 20260510174429 | 57 | 244 | 0.0 | 1.0 | 0.00 | 0.00 | 0.00 | 92 | 1015.5 |
| 20260510173925 | 57 | 254 | 4.0 | 4.0 | 0.00 | 0.00 | 0.00 | 91 | 1015.5 |
| 20260510173421 | 57 | 240 | 0.0 | 1.0 | 0.00 | 0.00 | 0.00 | 92 | 1015.5 |
| 20260510172917 | 56 | 255 | 1.0 | 1.0 | 0.00 | 0.00 | 0.00 | 93 | 1015.4 |
| 20260510172414 | 55 | 234 | 0.0 | 1.0 | 0.00 | 0.00 | 0.00 | 96 | 1015.4 |
| 20260510171909 | 54 | 230 | 0.0 | 1.0 | 0.00 | 0.00 | 0.00 | 99 | 1015.5 |
| 20260510171407 | 53 | 253 | 0.0 | 1.0 | 0.00 | 0.00 | 0.00 | 99 | 1015.5 |
| 20260510170904 | 53 | 253 | 1.0 | 1.0 | 0.00 | 0.00 | 0.00 | 99 | 1015.5 |
| 20260510170400 | 53 | 253 | 0.0 | 3.0 | 0.00 | 0.00 | 0.00 | 99 | 1015.4 |
| 20260510165855 | 52 | 252 | 2.0 | 4.0 | 0.00 | 0.00 | 0.00 | 99 | 1015.4 |
| 20260510165352 | 53 | 246 | 2.0 | 3.0 | 0.00 | 0.00 | 0.00 | 99 | 1015.4 |
| 20260510164849 | 52 | 243 | 0.0 | 1.0 | 0.00 | 0.00 | 0.00 | 99 | 1015.5 |
| 20260510164347 | 52 | 235 | 0.0 | 1.0 | 0.00 | 0.00 | 0.00 | 99 | 1015.4 |
| 20260510163846 | 52 | 250 | 0.0 | 0.0 | 0.00 | 0.00 | 0.00 | 99 | 1015.2 |
| 20260510163343 | 52 | 250 | 0.0 | 0.0 | 0.00 | 0.00 | 0.00 | 99 | 1015.3 |
| 20260510162837 | 52 | 250 | 1.0 | 3.0 | 0.00 | 0.00 | 0.00 | 99 | 1015.3 |
| 20260510162336 | 52 | 232 | 0.0 | 1.0 | 0.00 | 0.00 | 0.00 | 99 | 1015.2 |
| 20260510161830 | 52 | 245 | 0.0 | 0.0 | 0.00 | 0.00 | 0.00 | 99 | 1015.3 |
| 20260510161321 | 52 | 244 | 0.0 | 0.0 | 0.00 | 0.00 | 0.00 | 99 | 1015.2 |
| 20260510160818 | 51 | 244 | 0.0 | 0.0 | 0.00 | 0.00 | 0.00 | 99 | 1015.0 |
| 20260510160314 | 51 | 250 | 0.0 | 0.0 | 0.00 | 0.00 | 0.00 | 99 | 1015.1 |
| 20260510155808 | 51 | 256 | 0.0 | 0.0 | 0.00 | 0.00 | 0.00 | 99 | 1015.0 |
| 20260510155306 | 51 | 275 | 0.0 | 0.0 | 0.00 | 0.00 | 0.00 | 99 | 1015.2 |
| 20260510154801 | 51 | 256 | 1.0 | 3.0 | 0.00 | 0.00 | 0.00 | 99 | 1015.0 |
| 20260510154257 | 51 | 253 | 0.0 | 0.0 | 0.00 | 0.00 | 0.00 | 99 | 1015.1 |
| 20260510153752 | 51 | 252 | 0.0 | 0.0 | 0.00 | 0.00 | 0.00 | 99 | 1015.0 |
| 20260510153248 | 51 | 253 | 0.0 | 0.0 | 0.00 | 0.00 | 0.00 | 99 | 1015.0 |
| 20260510152745 | 51 | 247 | 0.0 | 1.0 | 0.00 | 0.00 | 0.00 | 99 | 1014.9 |
| 20260510152242 | 51 | 240 | 0.0 | 0.0 | 0.00 | 0.00 | 0.00 | 99 | 1014.8 |
| 20260510151738 | 51 | 261 | 0.0 | 3.0 | 0.00 | 0.00 | 0.00 | 99 | 1014.8 |
| 20260510151237 | 51 | 246 | 0.0 | 0.0 | 0.00 | 0.00 | 0.00 | 99 | 1014.8 |
| 20260510150727 | 51 | 248 | 0.0 | 0.0 | 0.00 | 0.00 | 0.00 | 99 | 1014.8 |
| 20260510150222 | 51 | 248 | 0.0 | 1.0 | 0.00 | 0.00 | 0.00 | 99 | 1014.8 |
| 20260510145719 | 50 | 229 | 0.0 | 3.0 | 0.00 | 0.00 | 0.00 | 99 | 1014.8 |
| 20260510145215 | 51 | 215 | 0.0 | 0.0 | 0.00 | 0.00 | 0.00 | 99 | 1014.7 |
| 20260510144711 | 51 | 215 | 0.0 | 0.0 | 0.00 | 0.00 | 0.00 | 99 | 1014.8 |
| 20260510144209 | 50 | 215 | 0.0 | 0.0 | 0.00 | 0.00 | 0.00 | 99 | 1014.8 |
| 20260510143703 | 50 | 215 | 0.0 | 0.0 | 0.00 | 0.00 | 0.00 | 99 | 1014.7 |
| 20260510143200 | 50 | 215 | 0.0 | 0.0 | 0.00 | 0.00 | 0.00 | 99 | 1014.7 |
| 20260510142655 | 50 | 215 | 0.0 | 0.0 | 0.00 | 0.00 | 0.00 | 99 | 1014.7 |
| 20260510142153 | 50 | 215 | 0.0 | 0.0 | 0.00 | 0.00 | 0.00 | 99 | 1014.7 |
| 20260510141650 | 50 | 215 | 0.0 | 0.0 | 0.00 | 0.00 | 0.00 | 99 | 1014.6 |
| 20260510141148 | 50 | 214 | 0.0 | 0.0 | 0.00 | 0.00 | 0.00 | 99 | 1014.4 |
| 20260510140644 | 50 | 264 | 0.0 | 0.0 | 0.00 | 0.00 | 0.00 | 99 | 1014.4 |
| 20260510140143 | 50 | 264 | 0.0 | 0.0 | 0.00 | 0.00 | 0.00 | 99 | 1014.3 |
| 20260510135639 | 50 | 263 | 0.0 | 0.0 | 0.00 | 0.00 | 0.00 | 99 | 1014.3 |
| 20260510135135 | 50 | 263 | 0.0 | 0.0 | 0.00 | 0.00 | 0.00 | 99 | 1014.4 |
| 20260510134632 | 50 | 256 | 0.0 | 0.0 | 0.00 | 0.00 | 0.00 | 99 | 1014.2 |
| 20260510134130 | 50 | 239 | 0.0 | 0.0 | 0.00 | 0.00 | 0.00 | 99 | 1014.1 |
| 20260510133626 | 50 | 283 | 0.0 | 0.0 | 0.00 | 0.00 | 0.00 | 99 | 1013.9 |
| 20260510133121 | 49 | 239 | 0.0 | 0.0 | 0.00 | 0.00 | 0.00 | 99 | 1014.0 |
| 20260510132618 | 50 | 276 | 0.0 | 0.0 | 0.00 | 0.00 | 0.00 | 99 | 1014.0 |
| 20260510132115 | 50 | 245 | 0.0 | 0.0 | 0.00 | 0.00 | 0.00 | 99 | 1013.9 |
| 20260510131613 | 50 | 263 | 0.0 | 0.0 | 0.00 | 0.00 | 0.00 | 99 | 1014.0 |
| 20260510131110 | 49 | 263 | 0.0 | 0.0 | 0.00 | 0.00 | 0.00 | 99 | 1014.0 |
| 20260510130606 | 49 | 254 | 0.0 | 0.0 | 0.00 | 0.00 | 0.00 | 99 | 1014.1 |
| 20260510130104 | 50 | 267 | 0.0 | 0.0 | 0.00 | 0.00 | 0.00 | 99 | 1014.1 |
| 20260510125600 | 50 | 274 | 0.0 | 0.0 | 0.00 | 0.00 | 0.00 | 99 | 1013.9 |
| 20260510125056 | 49 | 248 | 0.0 | 0.0 | 0.00 | 0.00 | 0.00 | 99 | 1013.8 |
| 20260510124552 | 49 | 255 | 0.0 | 0.0 | 0.00 | 0.00 | 0.00 | 99 | 1013.9 |
| 20260510124050 | 50 | 251 | 0.0 | 0.0 | 0.00 | 0.00 | 0.00 | 99 | 1014.0 |
| 20260510123545 | 50 | 251 | 0.0 | 0.0 | 0.00 | 0.00 | 0.00 | 99 | 1013.9 |
| 20260510123041 | 50 | 227 | 0.0 | 0.0 | 0.00 | 0.00 | 0.00 | 99 | 1014.0 |
| 20260510122537 | 50 | 259 | 0.0 | 0.0 | 0.00 | 0.00 | 0.00 | 99 | 1013.8 |
| 20260510122033 | 50 | 243 | 0.0 | 0.0 | 0.00 | 0.00 | 0.00 | 99 | 1013.9 |
| 20260510121531 | 50 | 266 | 0.0 | 0.0 | 0.00 | 0.00 | 0.00 | 99 | 1013.9 |
| 20260510121028 | 50 | 266 | 0.0 | 0.0 | 0.00 | 0.00 | 0.00 | 99 | 1013.9 |
| 20260510120525 | 50 | 251 | 0.0 | 0.0 | 0.00 | 0.00 | 0.00 | 99 | 1014.0 |
| 20260510120021 | 50 | 263 | 0.0 | 0.0 | 0.00 | 0.00 | 0.00 | 99 | 1013.9 |
| 20260510115518 | 50 | 268 | 0.0 | 0.0 | 0.00 | 0.00 | 0.00 | 99 | 1013.9 |
| 20260510115014 | 50 | 262 | 0.0 | 0.0 | 0.00 | 0.00 | 0.00 | 99 | 1014.0 |
| 20260510114511 | 50 | 275 | 0.0 | 0.0 | 0.00 | 0.00 | 0.00 | 99 | 1013.9 |
| 20260510114007 | 50 | 246 | 0.0 | 0.0 | 0.00 | 0.00 | 0.00 | 99 | 1014.0 |
| 20260510113502 | 50 | 249 | 0.0 | 0.0 | 0.00 | 0.00 | 0.00 | 99 | 1014.0 |
| 20260510112959 | 50 | 247 | 0.0 | 0.0 | 0.00 | 0.00 | 0.00 | 99 | 1014.0 |
| 20260510112456 | 50 | 263 | 0.0 | 0.0 | 0.00 | 0.00 | 0.00 | 99 | 1014.0 |
| 20260510111952 | 50 | 249 | 0.0 | 0.0 | 0.00 | 0.00 | 0.00 | 99 | 1014.3 |
| 20260510111448 | 50 | 217 | 0.0 | 0.0 | 0.00 | 0.00 | 0.00 | 99 | 1014.2 |
| 20260510110944 | 50 | 250 | 0.0 | 0.0 | 0.00 | 0.00 | 0.00 | 99 | 1014.2 |
| 20260510110441 | 50 | 268 | 0.0 | 1.0 | 0.00 | 0.00 | 0.00 | 99 | 1014.1 |
| 20260510105937 | 50 | 248 | 1.0 | 1.0 | 0.00 | 0.00 | 0.00 | 99 | 1014.1 |
| 20260510105432 | 50 | 250 | 0.0 | 0.0 | 0.00 | 0.00 | 0.00 | 99 | 1014.0 |
| 20260510104928 | 50 | 252 | 3.0 | 3.0 | 0.00 | 0.00 | 0.00 | 99 | 1013.9 |
| 20260510104425 | 50 | 252 | 0.0 | 0.0 | 0.00 | 0.00 | 0.00 | 99 | 1014.0 |
| 20260510103921 | 50 | 241 | 0.0 | 0.0 | 0.00 | 0.00 | 0.00 | 99 | 1014.0 |
| 20260510103419 | 50 | 254 | 0.0 | 0.0 | 0.00 | 0.00 | 0.00 | 99 | 1014.0 |
| 20260510102914 | 50 | 250 | 0.0 | 3.0 | 0.00 | 0.00 | 0.00 | 99 | 1013.9 |
| 20260510102411 | 50 | 245 | 0.0 | 0.0 | 0.00 | 0.00 | 0.00 | 99 | 1014.0 |
| 20260510101908 | 50 | 205 | 0.0 | 0.0 | 0.00 | 0.00 | 0.00 | 99 | 1014.1 |
| 20260510101406 | 50 | 246 | 0.0 | 3.0 | 0.00 | 0.00 | 0.00 | 99 | 1014.1 |
| 20260510100902 | 50 | 240 | 0.0 | 0.0 | 0.00 | 0.00 | 0.00 | 99 | 1014.0 |
| 20260510100359 | 50 | 241 | 0.0 | 0.0 | 0.00 | 0.00 | 0.00 | 99 | 1014.1 |
| 20260510095855 | 50 | 238 | 0.0 | 0.0 | 0.00 | 0.00 | 0.00 | 99 | 1014.1 |
| 20260510095350 | 50 | 245 | 0.0 | 0.0 | 0.00 | 0.00 | 0.00 | 99 | 1014.1 |
| 20260510094850 | 50 | 239 | 2.0 | 5.0 | 0.00 | 0.00 | 0.00 | 99 | 1014.1 |
| 20260510094345 | 50 | 249 | 0.0 | 0.0 | 0.00 | 0.00 | 0.00 | 99 | 1013.8 |
| 20260510093842 | 50 | 260 | 0.0 | 0.0 | 0.00 | 0.00 | 0.00 | 99 | 1014.0 |
| 20260510093337 | 50 | 250 | 0.0 | 0.0 | 0.00 | 0.00 | 0.00 | 99 | 1013.9 |
| 20260510092834 | 50 | 263 | 0.0 | 0.0 | 0.00 | 0.00 | 0.00 | 99 | 1013.9 |
| 20260510092330 | 50 | 263 | 0.0 | 0.0 | 0.00 | 0.00 | 0.00 | 99 | 1013.9 |
| 20260510091826 | 50 | 249 | 0.0 | 0.0 | 0.00 | 0.00 | 0.00 | 99 | 1014.0 |
| 20260510091323 | 50 | 246 | 0.0 | 0.0 | 0.00 | 0.00 | 0.00 | 99 | 1014.2 |
| 20260510090819 | 50 | 262 | 0.0 | 0.0 | 0.00 | 0.00 | 0.00 | 99 | 1014.1 |
| 20260510090317 | 50 | 247 | 0.0 | 0.0 | 0.00 | 0.00 | 0.00 | 99 | 1014.1 |
| 20260510085812 | 50 | 257 | 0.0 | 0.0 | 0.00 | 0.00 | 0.00 | 99 | 1014.1 |
| 20260510085307 | 50 | 260 | 0.0 | 0.0 | 0.00 | 0.00 | 0.00 | 99 | 1014.1 |
| 20260510084803 | 50 | 241 | 0.0 | 0.0 | 0.00 | 0.00 | 0.00 | 99 | 1014.1 |
| 20260510084300 | 51 | 254 | 0.0 | 0.0 | 0.00 | 0.00 | 0.00 | 99 | 1014.2 |
| 20260510083756 | 51 | 248 | 0.0 | 0.0 | 0.00 | 0.00 | 0.00 | 99 | 1014.3 |
| 20260510083254 | 51 | 223 | 0.0 | 0.0 | 0.00 | 0.00 | 0.00 | 99 | 1014.3 |
| 20260510082749 | 50 | 243 | 0.0 | 0.0 | 0.00 | 0.00 | 0.00 | 99 | 1014.4 |
| 20260510082246 | 50 | 246 | 0.0 | 0.0 | 0.00 | 0.00 | 0.00 | 99 | 1014.3 |
| 20260510081744 | 50 | 245 | 0.0 | 0.0 | 0.00 | 0.00 | 0.00 | 99 | 1014.2 |
| 20260510081241 | 50 | 263 | 0.0 | 0.0 | 0.00 | 0.00 | 0.00 | 99 | 1014.3 |
| 20260510080736 | 50 | 258 | 0.0 | 1.0 | 0.00 | 0.00 | 0.00 | 99 | 1014.3 |
| 20260510080232 | 50 | 264 | 0.0 | 1.0 | 0.00 | 0.00 | 0.00 | 99 | 1014.4 |
| 20260510075729 | 51 | 265 | 0.0 | 0.0 | 0.00 | 0.00 | 0.00 | 99 | 1014.3 |
| 20260510075227 | 51 | 265 | 0.0 | 0.0 | 0.00 | 0.00 | 0.00 | 99 | 1014.2 |
| 20260510074724 | 50 | 239 | 0.0 | 0.0 | 0.00 | 0.00 | 0.00 | 99 | 1014.3 |
| 20260510074220 | 50 | 252 | 0.0 | 1.0 | 0.00 | 0.00 | 0.00 | 99 | 1014.4 |
| 20260510073717 | 50 | 233 | 0.0 | 0.0 | 0.00 | 0.00 | 0.00 | 99 | 1014.5 |
| 20260510073212 | 51 | 246 | 0.0 | 0.0 | 0.00 | 0.00 | 0.00 | 99 | 1014.5 |
| 20260510072708 | 51 | 238 | 0.0 | 3.0 | 0.00 | 0.00 | 0.00 | 99 | 1014.4 |
| 20260510072205 | 50 | 248 | 0.0 | 1.0 | 0.00 | 0.00 | 0.00 | 99 | 1014.6 |
| 20260510071702 | 51 | 279 | 0.0 | 0.0 | 0.00 | 0.00 | 0.00 | 99 | 1014.3 |
| 20260510071159 | 51 | 255 | 0.0 | 3.0 | 0.00 | 0.00 | 0.00 | 99 | 1014.4 |
| 20260510070656 | 51 | 224 | 1.0 | 3.0 | 0.00 | 0.00 | 0.00 | 99 | 1014.2 |
| 20260510070154 | 51 | 251 | 0.0 | 0.0 | 0.00 | 0.00 | 0.00 | 99 | 1014.4 |
| 20260510065649 | 51 | 259 | 0.0 | 0.0 | 0.00 | 0.00 | 0.00 | 99 | 1014.3 |
| 20260510065145 | 51 | 273 | 0.0 | 4.0 | 0.00 | 0.00 | 0.00 | 99 | 1014.2 |
| 20260510064642 | 51 | 239 | 0.0 | 1.0 | 0.00 | 0.00 | 0.00 | 99 | 1014.2 |
| 20260510064139 | 51 | 237 | 0.0 | 0.0 | 0.00 | 0.00 | 0.00 | 99 | 1014.1 |
| 20260510063636 | 51 | 273 | 0.0 | 0.0 | 0.00 | 0.00 | 0.00 | 99 | 1014.2 |
| 20260510063132 | 51 | 261 | 0.0 | 0.0 | 0.00 | 0.00 | 0.00 | 99 | 1014.2 |
| 20260510062628 | 51 | 247 | 0.0 | 0.0 | 0.00 | 0.00 | 0.00 | 99 | 1014.2 |
| 20260510062124 | 51 | 356 | 0.0 | 0.0 | 0.00 | 0.00 | 0.00 | 99 | 1014.2 |
| 20260510061620 | 51 | 220 | 0.0 | 0.0 | 0.00 | 0.00 | 0.00 | 99 | 1014.2 |
| 20260510061118 | 51 | 238 | 0.0 | 3.0 | 0.00 | 0.00 | 0.00 | 99 | 1014.3 |
| 20260510060613 | 51 | 252 | 0.0 | 0.0 | 0.00 | 0.00 | 0.00 | 99 | 1014.3 |
| 20260510060110 | 52 | 248 | 0.0 | 0.0 | 0.00 | 0.00 | 0.00 | 99 | 1014.3 |
| 20260510055606 | 51 | 244 | 0.0 | 0.0 | 0.00 | 0.00 | 0.00 | 99 | 1014.3 |
| 20260510055105 | 51 | 249 | 0.0 | 0.0 | 0.00 | 0.00 | 0.00 | 99 | 1014.3 |
| 20260510054600 | 51 | 253 | 0.0 | 1.0 | 0.00 | 0.00 | 0.00 | 98 | 1014.4 |
| 20260510054055 | 51 | 261 | 1.0 | 3.0 | 0.00 | 0.00 | 0.00 | 98 | 1014.3 |
| 20260510053549 | 51 | 242 | 0.0 | 1.0 | 0.00 | 0.00 | 0.00 | 98 | 1014.5 |
| 20260510053046 | 52 | 251 | 0.0 | 1.0 | 0.00 | 0.00 | 0.00 | 98 | 1014.3 |
| 20260510052542 | 52 | 240 | 0.0 | 0.0 | 0.00 | 0.00 | 0.00 | 98 | 1014.3 |
| 20260510052038 | 52 | 245 | 0.0 | 0.0 | 0.00 | 0.00 | 0.00 | 98 | 1014.2 |
| 20260510051534 | 52 | 248 | 0.0 | 0.0 | 0.00 | 0.00 | 0.00 | 97 | 1014.1 |
| 20260510051031 | 52 | 246 | 0.0 | 0.0 | 0.00 | 0.00 | 0.00 | 97 | 1014.2 |
| 20260510050528 | 52 | 239 | 0.0 | 1.0 | 0.00 | 0.00 | 0.00 | 97 | 1014.1 |
| 20260510050025 | 52 | 245 | 0.0 | 0.0 | 0.00 | 0.00 | 0.00 | 97 | 1014.2 |
| 20260510045522 | 52 | 246 | 0.0 | 0.0 | 0.00 | 0.00 | 0.00 | 97 | 1014.2 |
| 20260510045018 | 52 | 243 | 0.0 | 0.0 | 0.00 | 0.00 | 0.00 | 97 | 1014.2 |
| 20260510044515 | 52 | 233 | 0.0 | 1.0 | 0.00 | 0.00 | 0.00 | 97 | 1014.1 |
| 20260510044014 | 52 | 257 | 0.0 | 0.0 | 0.00 | 0.00 | 0.00 | 97 | 1014.1 |
| 20260510043514 | 52 | 251 | 0.0 | 0.0 | 0.00 | 0.00 | 0.00 | 96 | 1013.9 |
| 20260510043009 | 52 | 262 | 0.0 | 1.0 | 0.00 | 0.00 | 0.00 | 96 | 1013.9 |
| 20260510042503 | 52 | 237 | 0.0 | 0.0 | 0.00 | 0.00 | 0.00 | 96 | 1014.0 |
| 20260510041958 | 53 | 267 | 0.0 | 3.0 | 0.00 | 0.00 | 0.00 | 95 | 1013.8 |
| 20260510041455 | 53 | 268 | 0.0 | 1.0 | 0.00 | 0.00 | 0.00 | 95 | 1013.8 |
| 20260510040954 | 53 | 273 | 0.0 | 0.0 | 0.00 | 0.00 | 0.00 | 95 | 1013.8 |
| 20260510040450 | 53 | 261 | 0.0 | 0.0 | 0.00 | 0.00 | 0.00 | 95 | 1013.8 |
| 20260510035946 | 53 | 257 | 0.0 | 0.0 | 0.00 | 0.00 | 0.00 | 94 | 1013.7 |
| 20260510035442 | 53 | 237 | 0.0 | 0.0 | 0.00 | 0.00 | 0.00 | 94 | 1013.7 |
| 20260510034942 | 53 | 241 | 0.0 | 0.0 | 0.00 | 0.00 | 0.00 | 94 | 1013.5 |
| 20260510034441 | 53 | 233 | 0.0 | 0.0 | 0.00 | 0.00 | 0.00 | 93 | 1013.5 |
| 20260510033937 | 54 | 241 | 0.0 | 0.0 | 0.00 | 0.00 | 0.00 | 93 | 1013.5 |
| 20260510033433 | 54 | 244 | 0.0 | 0.0 | 0.00 | 0.00 | 0.00 | 93 | 1013.4 |
| 20260510032931 | 54 | 237 | 0.0 | 0.0 | 0.00 | 0.00 | 0.00 | 92 | 1013.5 |
| 20260510032428 | 54 | 274 | 0.0 | 0.0 | 0.00 | 0.00 | 0.00 | 92 | 1013.4 |
| 20260510031928 | 54 | 248 | 0.0 | 0.0 | 0.00 | 0.00 | 0.00 | 91 | 1013.3 |
| 20260510031423 | 55 | 268 | 0.0 | 3.0 | 0.00 | 0.00 | 0.00 | 91 | 1013.3 |
| 20260510030919 | 55 | 247 | 0.0 | 3.0 | 0.00 | 0.00 | 0.00 | 90 | 1013.3 |
| 20260510030415 | 56 | 245 | 3.0 | 4.0 | 0.00 | 0.00 | 0.00 | 89 | 1013.4 |
| 20260510025913 | 57 | 212 | 1.0 | 1.0 | 0.00 | 0.00 | 0.00 | 87 | 1013.2 |
| 20260510025410 | 57 | 257 | 0.0 | 1.0 | 0.00 | 0.00 | 0.00 | 86 | 1013.2 |
| 20260510024907 | 58 | 234 | 1.0 | 5.0 | 0.00 | 0.00 | 0.00 | 85 | 1013.3 |
| 20260510024403 | 58 | 218 | 0.0 | 3.0 | 0.00 | 0.00 | 0.00 | 86 | 1013.3 |
| 20260510023859 | 58 | 229 | 0.0 | 0.0 | 0.00 | 0.00 | 0.00 | 85 | 1013.3 |
| 20260510023356 | 59 | 236 | 2.0 | 4.0 | 0.00 | 0.00 | 0.00 | 84 | 1013.1 |
| 20260510022854 | 60 | 210 | 0.0 | 3.0 | 0.00 | 0.00 | 0.00 | 82 | 1013.2 |
| 20260510022353 | 60 | 241 | 0.0 | 0.0 | 0.00 | 0.00 | 0.00 | 81 | 1013.3 |
| 20260510021851 | 61 | 238 | 0.0 | 1.0 | 0.00 | 0.00 | 0.00 | 81 | 1013.2 |
| 20260510021350 | 61 | 238 | 3.0 | 4.0 | 0.00 | 0.00 | 0.00 | 80 | 1013.2 |
| 20260510020846 | 61 | 228 | 0.0 | 7.0 | 0.00 | 0.00 | 0.00 | 81 | 1013.1 |
| 20260510020346 | 62 | 256 | 0.0 | 1.0 | 0.00 | 0.00 | 0.00 | 78 | 1013.2 |
| 20260510015842 | 63 | 282 | 5.0 | 7.0 | 0.00 | 0.00 | 0.00 | 77 | 1013.1 |
| 20260510015338 | 63 | 243 | 0.0 | 3.0 | 0.00 | 0.00 | 0.00 | 77 | 1013.2 |
| 20260510014833 | 64 | 248 | 1.0 | 5.0 | 0.00 | 0.00 | 0.00 | 76 | 1013.1 |
| 20260510014331 | 65 | 271 | 1.0 | 5.0 | 0.00 | 0.00 | 0.00 | 74 | 1013.1 |
| 20260510013827 | 65 | 261 | 2.0 | 5.0 | 0.00 | 0.00 | 0.00 | 74 | 1013.3 |
| 20260510013323 | 64 | 261 | 2.0 | 5.0 | 0.00 | 0.00 | 0.00 | 74 | 1013.3 |
| 20260510012818 | 66 | 249 | 2.0 | 4.0 | 0.00 | 0.00 | 0.00 | 73 | 1013.3 |
| 20260510012318 | 66 | 248 | 2.0 | 4.0 | 0.00 | 0.00 | 0.00 | 72 | 1013.2 |
| 20260510011813 | 66 | 259 | 2.0 | 3.0 | 0.00 | 0.00 | 0.00 | 73 | 1013.2 |
| 20260510011309 | 66 | 234 | 3.0 | 5.0 | 0.00 | 0.00 | 0.00 | 74 | 1013.2 |
| 20260510010806 | 66 | 242 | 4.0 | 7.0 | 0.00 | 0.00 | 0.00 | 74 | 1013.2 |
| 20260510010303 | 68 | 296 | 2.0 | 4.0 | 0.00 | 0.00 | 0.00 | 70 | 1013.3 |
| 20260510005759 | 67 | 270 | 4.0 | 5.0 | 0.00 | 0.00 | 0.00 | 71 | 1013.4 |
| 20260510005255 | 67 | 277 | 1.0 | 4.0 | 0.00 | 0.00 | 0.00 | 71 | 1013.4 |
| 20260510004754 | 69 | 248 | 1.0 | 3.0 | 0.00 | 0.00 | 0.00 | 70 | 1013.4 |
| 20260510004250 | 68 | 283 | 5.0 | 8.0 | 0.00 | 0.00 | 0.00 | 69 | 1013.4 |
| 20260510003748 | 68 | 283 | 0.0 | 4.0 | 0.00 | 0.00 | 0.00 | 71 | 1013.5 |
| 20260510003245 | 69 | 270 | 2.0 | 5.0 | 0.00 | 0.00 | 0.00 | 69 | 1013.5 |
| 20260510002743 | 69 | 239 | 1.0 | 5.0 | 0.00 | 0.00 | 0.00 | 69 | 1013.6 |
| 20260510002241 | 68 | 81 | 1.0 | 4.0 | 0.00 | 0.00 | 0.00 | 69 | 1013.6 |
| 20260510001737 | 69 | 282 | 5.0 | 7.0 | 0.00 | 0.00 | 0.00 | 68 | 1013.7 |
| 20260510001236 | 70 | 264 | 5.0 | 5.0 | 0.00 | 0.00 | 0.00 | 66 | 1013.7 |
| 20260510000732 | 70 | 297 | 0.0 | 4.0 | 0.00 | 0.00 | 0.00 | 67 | 1013.6 |
| 20260510000229 | 70 | 271 | 3.0 | 5.0 | 0.00 | 0.00 | 0.00 | 67 | 1013.7 |
| 20260509235726 | 71 | 252 | 0.0 | 8.0 | 0.00 | 0.00 | 0.00 | 67 | 1013.8 |
| 20260509235222 | 71 | 256 | 3.0 | 4.0 | 0.00 | 0.00 | 0.00 | 64 | 1013.9 |
| 20260509234718 | 70 | 255 | 6.0 | 8.0 | 0.00 | 0.00 | 0.00 | 66 | 1013.9 |
| 20260509234215 | 69 | 277 | 4.0 | 10.0 | 0.00 | 0.00 | 0.00 | 68 | 1013.8 |
| 20260509233714 | 70 | 239 | 2.0 | 8.0 | 0.00 | 0.00 | 0.00 | 67 | 1014.0 |
| 20260509233211 | 68 | 243 | 1.0 | 7.0 | 0.00 | 0.00 | 0.00 | 69 | 1014.0 |
| 20260509232707 | 70 | 294 | 3.0 | 7.0 | 0.00 | 0.00 | 0.00 | 65 | 1014.1 |
| 20260509232204 | 70 | 231 | 3.0 | 7.0 | 0.00 | 0.00 | 0.00 | 65 | 1013.9 |
| 20260509231700 | 71 | 291 | 4.0 | 8.0 | 0.00 | 0.00 | 0.00 | 63 | 1014.0 |
| 20260509231158 | 70 | 289 | 3.0 | 5.0 | 0.00 | 0.00 | 0.00 | 68 | 1014.0 |
| 20260509230655 | 70 | 286 | 3.0 | 11.0 | 0.00 | 0.00 | 0.00 | 66 | 1014.1 |
| 20260509230152 | 70 | 294 | 0.0 | 5.0 | 0.00 | 0.00 | 0.00 | 64 | 1014.1 |
| 20260509225647 | 70 | 224 | 3.0 | 7.0 | 0.00 | 0.00 | 0.00 | 65 | 1014.1 |
| 20260509225143 | 71 | 251 | 2.0 | 5.0 | 0.00 | 0.00 | 0.00 | 64 | 1014.2 |
| 20260509224639 | 70 | 252 | 2.0 | 5.0 | 0.00 | 0.00 | 0.00 | 65 | 1014.3 |
| 20260509224136 | 69 | 277 | 3.0 | 7.0 | 0.00 | 0.00 | 0.00 | 66 | 1014.4 |
| 20260509223632 | 71 | 230 | 5.0 | 7.0 | 0.00 | 0.00 | 0.00 | 65 | 1014.5 |
| 20260509223130 | 70 | 266 | 4.0 | 7.0 | 0.00 | 0.00 | 0.00 | 63 | 1014.5 |
| 20260509222627 | 71 | 218 | 4.0 | 7.0 | 0.00 | 0.00 | 0.00 | 62 | 1014.6 |
| 20260509222122 | 71 | 239 | 1.0 | 4.0 | 0.00 | 0.00 | 0.00 | 63 | 1014.5 |
| 20260509221618 | 72 | 218 | 5.0 | 7.0 | 0.00 | 0.00 | 0.00 | 62 | 1014.6 |
| 20260509221114 | 72 | 263 | 5.0 | 8.0 | 0.00 | 0.00 | 0.00 | 61 | 1014.5 |
| 20260509220610 | 72 | 265 | 2.0 | 5.0 | 0.00 | 0.00 | 0.00 | 62 | 1014.6 |
| 20260509220107 | 72 | 250 | 1.0 | 5.0 | 0.00 | 0.00 | 0.00 | 60 | 1014.7 |
| 20260509215602 | 73 | 225 | 3.0 | 4.0 | 0.00 | 0.00 | 0.00 | 58 | 1014.8 |
| 20260509215100 | 72 | 241 | 7.0 | 8.0 | 0.00 | 0.00 | 0.00 | 61 | 1014.9 |
| 20260509214557 | 73 | 207 | 2.0 | 5.0 | 0.00 | 0.00 | 0.00 | 62 | 1014.7 |
| 20260509214053 | 73 | 261 | 1.0 | 4.0 | 0.00 | 0.00 | 0.00 | 63 | 1014.8 |
| 20260509213549 | 73 | 278 | 7.0 | 8.0 | 0.00 | 0.00 | 0.00 | 61 | 1014.9 |
| 20260509213046 | 73 | 239 | 1.0 | 7.0 | 0.00 | 0.00 | 0.00 | 63 | 1014.9 |
| 20260509212543 | 73 | 265 | 2.0 | 4.0 | 0.00 | 0.00 | 0.00 | 61 | 1015.1 |
| 20260509212040 | 73 | 272 | 4.0 | 5.0 | 0.00 | 0.00 | 0.00 | 63 | 1014.9 |
| 20260509211536 | 74 | 254 | 3.0 | 5.0 | 0.00 | 0.00 | 0.00 | 61 | 1014.9 |
| 20260509211033 | 74 | 298 | 0.0 | 7.0 | 0.00 | 0.00 | 0.00 | 62 | 1014.9 |
| 20260509210530 | 72 | 239 | 2.0 | 5.0 | 0.00 | 0.00 | 0.00 | 64 | 1015.1 |
| 20260509210026 | 72 | 271 | 4.0 | 8.0 | 0.00 | 0.00 | 0.00 | 64 | 1015.1 |
| 20260509205520 | 72 | 257 | 0.0 | 3.0 | 0.00 | 0.00 | 0.00 | 62 | 1014.9 |
| 20260509205016 | 74 | 242 | 0.0 | 5.0 | 0.00 | 0.00 | 0.00 | 61 | 1015.0 |
| 20260509204513 | 73 | 243 | 2.0 | 4.0 | 0.00 | 0.00 | 0.00 | 63 | 1015.1 |
| 20260509204009 | 72 | 268 | 5.0 | 7.0 | 0.00 | 0.00 | 0.00 | 62 | 1015.1 |
| 20260509203505 | 72 | 211 | 3.0 | 5.0 | 0.00 | 0.00 | 0.00 | 64 | 1015.0 |
| 20260509203004 | 74 | 253 | 3.0 | 7.0 | 0.00 | 0.00 | 0.00 | 61 | 1015.2 |
| 20260509202458 | 73 | 257 | 3.0 | 5.0 | 0.00 | 0.00 | 0.00 | 65 | 1015.0 |
| 20260509201954 | 71 | 254 | 2.0 | 4.0 | 0.00 | 0.00 | 0.00 | 65 | 1015.2 |
| 20260509201454 | 73 | 259 | 2.0 | 5.0 | 0.00 | 0.00 | 0.00 | 66 | 1015.1 |
| 20260509200951 | 73 | 265 | 3.0 | 10.0 | 0.00 | 0.00 | 0.00 | 66 | 1015.1 |
| 20260509200446 | 75 | 249 | 4.0 | 7.0 | 0.00 | 0.00 | 0.00 | 62 | 1015.1 |
| 20260509195943 | 75 | 235 | 2.0 | 4.0 | 0.00 | 0.00 | 0.00 | 64 | 1015.2 |
| 20260509195438 | 75 | 190 | 3.0 | 4.0 | 0.00 | 0.00 | 0.00 | 64 | 1015.3 |
| 20260509194938 | 75 | 247 | 3.0 | 7.0 | 0.00 | 0.00 | 0.00 | 59 | 1015.2 |
| 20260509194433 | 75 | 251 | 3.0 | 4.0 | 0.00 | 0.00 | 0.00 | 58 | 1015.1 |
| 20260509193931 | 74 | 258 | 3.0 | 7.0 | 0.00 | 0.00 | 0.00 | 59 | 1015.1 |
| 20260509193430 | 73 | 200 | 0.0 | 1.0 | 0.00 | 0.00 | 0.00 | 57 | 1015.2 |